BCS71N LEVT-LEAL

Flight info

Callsign BCS71N
Flight time 1h 7m
Altitude 32000
Route PPN M176 CMA/N0360F240 M176 CLS
Aircraft B738/M-SDE2E3FGHIRWXY/LB1

Departure

Time 2026-05-07 09:30
Airport Vitoria Airport (LEVT)

Arrival

Time 2026-05-07 10:38
Airport Alicante-Elche Miguel Hernández Airport (LEAL)
Time Latitude Longitude Altitude Speed Heading
2026-05-07 08:53 42.88055 -2.73404 1687 ft 0 kts 37°
2026-05-07 09:21 42.88057 -2.73402 1676 ft 1 kts 37°
2026-05-07 09:21 42.88072 -2.73386 1679 ft 4 kts 37°
2026-05-07 09:22 42.88098 -2.73353 1676 ft 6 kts 65°
2026-05-07 09:22 42.88081 -2.73296 1676 ft 8 kts 121°
2026-05-07 09:22 42.88032 -2.73263 1684 ft 9 kts 197°
2026-05-07 09:22 42.87979 -2.73233 1676 ft 9 kts 128°
2026-05-07 09:23 42.87942 -2.73163 1676 ft 9 kts 126°
2026-05-07 09:23 42.87944 -2.73086 1679 ft 9 kts 52°
2026-05-07 09:23 42.87991 -2.73037 1681 ft 8 kts 36°
2026-05-07 09:23 42.88038 -2.72992 1676 ft 8 kts 36°
2026-05-07 09:24 42.88083 -2.72947 1676 ft 8 kts 36°
2026-05-07 09:24 42.88127 -2.72903 1676 ft 8 kts 36°
2026-05-07 09:24 42.88169 -2.72861 1681 ft 7 kts 36°
2026-05-07 09:24 42.88210 -2.72820 1680 ft 7 kts 36°
2026-05-07 09:25 42.88250 -2.72782 1676 ft 7 kts 35°
2026-05-07 09:25 42.88298 -2.72735 1681 ft 10 kts 36°
2026-05-07 09:25 42.88370 -2.72663 1676 ft 15 kts 36°
2026-05-07 09:25 42.88468 -2.72568 1682 ft 19 kts 36°
2026-05-07 09:26 42.88586 -2.72452 1685 ft 21 kts 36°
2026-05-07 09:26 42.88704 -2.72336 1680 ft 21 kts 36°
2026-05-07 09:26 42.88820 -2.72222 1680 ft 20 kts 35°
2026-05-07 09:26 42.88932 -2.72111 1685 ft 20 kts 36°
2026-05-07 09:27 42.89041 -2.72004 1677 ft 19 kts 36°
2026-05-07 09:27 42.89146 -2.71901 1692 ft 18 kts 36°
2026-05-07 09:27 42.89345 -2.71706 1692 ft 17 kts 35°
2026-05-07 09:28 42.89440 -2.71614 1685 ft 16 kts 36°
2026-05-07 09:28 42.89531 -2.71523 1685 ft 16 kts 36°
2026-05-07 09:28 42.89616 -2.71437 1685 ft 11 kts 36°
2026-05-07 09:28 42.89627 -2.71348 1689 ft 11 kts 121°
2026-05-07 09:29 42.89582 -2.71267 1694 ft 11 kts 128°
2026-05-07 09:29 42.89561 -2.71230 1691 ft 0 kts 128°
2026-05-07 09:29 42.89556 -2.71223 1686 ft 3 kts 129°
2026-05-07 09:29 42.89528 -2.71225 1685 ft 6 kts 213°
2026-05-07 09:30 42.89407 -2.71342 1690 ft 50 kts 216°
2026-05-07 09:30 42.88928 -2.71806 1682 ft 118 kts 216°
2026-05-07 09:30 42.88113 -2.72593 1810 ft 160 kts 215°
2026-05-07 09:30 42.87189 -2.73471 2495 ft 162 kts 214°
2026-05-07 09:31 42.86241 -2.74356 3148 ft 173 kts 213°
2026-05-07 09:31 42.85203 -2.75356 3601 ft 188 kts 214°
2026-05-07 09:31 42.84122 -2.76388 4319 ft 191 kts 212°
2026-05-07 09:31 42.83026 -2.77340 5171 ft 188 kts 210°
2026-05-07 09:32 42.81939 -2.78345 5859 ft 191 kts 214°
2026-05-07 09:32 42.80855 -2.79382 6566 ft 189 kts 214°
2026-05-07 09:32 42.79763 -2.80418 7175 ft 193 kts 214°
2026-05-07 09:32 42.78644 -2.81468 7741 ft 195 kts 214°
2026-05-07 09:33 42.77531 -2.82509 8333 ft 198 kts 214°
2026-05-07 09:33 42.76266 -2.83232 8909 ft 202 kts 183°
2026-05-07 09:33 42.74905 -2.82751 9521 ft 208 kts 148°
2026-05-07 09:33 42.73947 -2.81270 10092 ft 215 kts 115°
2026-05-07 09:34 42.73664 -2.79262 10679 ft 220 kts 94°
2026-05-07 09:34 42.73642 -2.77164 11263 ft 224 kts 92°
2026-05-07 09:34 42.73641 -2.75028 11865 ft 226 kts 92°
2026-05-07 09:34 42.73641 -2.72899 12485 ft 229 kts 92°
2026-05-07 09:35 42.73639 -2.70706 13115 ft 233 kts 93°
2026-05-07 09:35 42.73633 -2.68485 13756 ft 236 kts 93°
2026-05-07 09:35 42.73625 -2.66240 14326 ft 238 kts 93°
2026-05-07 09:35 42.73615 -2.63999 14916 ft 240 kts 93°
2026-05-07 09:36 42.73603 -2.61720 15526 ft 242 kts 94°
2026-05-07 09:36 42.73590 -2.59415 16145 ft 244 kts 94°
2026-05-07 09:36 42.73575 -2.57093 16748 ft 246 kts 94°
2026-05-07 09:36 42.73560 -2.54752 17363 ft 248 kts 94°
2026-05-07 09:37 42.73543 -2.52386 17983 ft 250 kts 94°
2026-05-07 09:37 42.73526 -2.50014 18538 ft 252 kts 94°
2026-05-07 09:37 42.73508 -2.47649 19017 ft 254 kts 94°
2026-05-07 09:37 42.73490 -2.45217 19539 ft 256 kts 94°
2026-05-07 09:38 42.73470 -2.42779 20072 ft 258 kts 94°
2026-05-07 09:38 42.73451 -2.40329 20593 ft 260 kts 94°
2026-05-07 09:38 42.73429 -2.37859 21111 ft 262 kts 94°
2026-05-07 09:38 42.73409 -2.35365 21589 ft 267 kts 94°
2026-05-07 09:39 42.73406 -2.32770 21701 ft 289 kts 93°
2026-05-07 09:39 42.73409 -2.29937 21883 ft 310 kts 93°
2026-05-07 09:39 42.73415 -2.26896 22044 ft 331 kts 92°
2026-05-07 09:39 42.73422 -2.23661 22216 ft 352 kts 93°
2026-05-07 09:40 42.73429 -2.20234 22357 ft 372 kts 92°
2026-05-07 09:40 42.73435 -2.16628 22496 ft 390 kts 92°
2026-05-07 09:40 42.73440 -2.12904 22758 ft 403 kts 92°
2026-05-07 09:40 42.73444 -2.09036 23173 ft 412 kts 92°
2026-05-07 09:41 42.73448 -2.05109 23746 ft 415 kts 92°
2026-05-07 09:41 42.73450 -2.01158 24284 ft 418 kts 92°
2026-05-07 09:41 42.73449 -1.97238 24764 ft 422 kts 92°
2026-05-07 09:41 42.73446 -1.93226 25250 ft 425 kts 92°
2026-05-07 09:42 42.73442 -1.89180 25728 ft 428 kts 93°
2026-05-07 09:42 42.73436 -1.85116 26315 ft 428 kts 93°
2026-05-07 09:42 42.73428 -1.81111 26983 ft 426 kts 94°
2026-05-07 09:42 42.73014 -1.77161 27579 ft 418 kts 113°
2026-05-07 09:43 42.71675 -1.73707 28202 ft 408 kts 131°
2026-05-07 09:43 42.69712 -1.71052 28869 ft 399 kts 147°
2026-05-07 09:43 42.67355 -1.69144 29509 ft 391 kts 161°
2026-05-07 09:43 42.64757 -1.68138 30099 ft 385 kts 172°
2026-05-07 09:44 42.62128 -1.67518 30648 ft 383 kts 174°
2026-05-07 09:44 42.59499 -1.66970 31129 ft 382 kts 174°
2026-05-07 09:44 42.56877 -1.66438 31683 ft 380 kts 174°
2026-05-07 09:44 42.54252 -1.65899 31985 ft 381 kts 174°
2026-05-07 09:45 42.51637 -1.65351 31982 ft 379 kts 174°
2026-05-07 09:45 42.46440 -1.64232 32000 ft 380 kts 174°
2026-05-07 09:46 42.41203 -1.63085 32004 ft 381 kts 174°
2026-05-07 09:46 42.35955 -1.61930 31999 ft 382 kts 174°
2026-05-07 09:47 42.30710 -1.60776 32001 ft 381 kts 174°
2026-05-07 09:47 42.25501 -1.59632 32006 ft 381 kts 174°
2026-05-07 09:48 42.20268 -1.58485 31999 ft 380 kts 174°
2026-05-07 09:48 42.15039 -1.57341 31996 ft 379 kts 174°
2026-05-07 09:49 42.09827 -1.56202 32009 ft 379 kts 174°
2026-05-07 09:49 42.04647 -1.55073 32007 ft 379 kts 174°
2026-05-07 09:50 41.99436 -1.53938 32006 ft 379 kts 174°
2026-05-07 09:50 41.94228 -1.52806 32000 ft 379 kts 174°
2026-05-07 09:51 41.89044 -1.51681 32004 ft 379 kts 174°
2026-05-07 09:51 41.83841 -1.50555 32008 ft 380 kts 174°
2026-05-07 09:52 41.78607 -1.49423 32004 ft 381 kts 174°
2026-05-07 09:52 41.73395 -1.48297 31999 ft 381 kts 174°
2026-05-07 09:53 41.68162 -1.47169 31994 ft 380 kts 174°
2026-05-07 09:53 41.62954 -1.46048 31986 ft 380 kts 174°
2026-05-07 09:54 41.57733 -1.44925 31993 ft 379 kts 174°
2026-05-07 09:54 41.53401 -1.43996 31999 ft 379 kts 174°
2026-05-07 09:55 41.48193 -1.42880 31992 ft 378 kts 174°
2026-05-07 09:55 41.42987 -1.41767 31985 ft 378 kts 174°
2026-05-07 09:56 41.37822 -1.40664 31999 ft 378 kts 174°
2026-05-07 09:56 41.32608 -1.39552 31987 ft 379 kts 174°
2026-05-07 09:57 41.27432 -1.38450 31990 ft 378 kts 174°
2026-05-07 09:57 41.22229 -1.37341 31976 ft 378 kts 174°
2026-05-07 09:58 41.17025 -1.36232 31982 ft 377 kts 174°
2026-05-07 09:58 41.11857 -1.35131 31975 ft 377 kts 174°
2026-05-07 09:59 41.06694 -1.34034 31979 ft 376 kts 174°
2026-05-07 09:59 41.01514 -1.32935 31981 ft 376 kts 174°
2026-05-07 10:00 40.96382 -1.31847 31980 ft 375 kts 174°
2026-05-07 10:00 40.91224 -1.30756 31980 ft 375 kts 174°
2026-05-07 10:01 40.86069 -1.29663 31979 ft 374 kts 174°
2026-05-07 10:01 40.80978 -1.28263 31979 ft 375 kts 172°
2026-05-07 10:02 40.75870 -1.26814 31986 ft 374 kts 172°
2026-05-07 10:02 40.70795 -1.25424 31987 ft 374 kts 172°
2026-05-07 10:03 40.65674 -1.24041 31983 ft 374 kts 172°
2026-05-07 10:03 40.60590 -1.22669 31988 ft 375 kts 172°
2026-05-07 10:04 40.55472 -1.21287 31990 ft 375 kts 172°
2026-05-07 10:04 40.50380 -1.19914 31996 ft 375 kts 172°
2026-05-07 10:05 40.45250 -1.18532 31984 ft 375 kts 172°
2026-05-07 10:05 40.40173 -1.17166 31997 ft 374 kts 172°
2026-05-07 10:06 40.35061 -1.15793 31992 ft 374 kts 172°
2026-05-07 10:06 40.29951 -1.14423 31978 ft 374 kts 173°
2026-05-07 10:07 40.24876 -1.13065 31995 ft 373 kts 173°
2026-05-07 10:07 40.19788 -1.11704 31998 ft 372 kts 173°
2026-05-07 10:08 40.14733 -1.10355 31999 ft 371 kts 173°
2026-05-07 10:08 40.09662 -1.09004 31996 ft 371 kts 173°
2026-05-07 10:09 40.04627 -1.07664 32000 ft 371 kts 173°
2026-05-07 10:09 39.99555 -1.06316 31984 ft 370 kts 173°
2026-05-07 10:10 39.94497 -1.04974 31758 ft 372 kts 173°
2026-05-07 10:10 39.91998 -1.04312 31432 ft 368 kts 173°
2026-05-07 10:10 39.89496 -1.03645 31021 ft 365 kts 173°
2026-05-07 10:10 39.87021 -1.02979 30640 ft 361 kts 173°
2026-05-07 10:11 39.84560 -1.02316 30255 ft 358 kts 173°
2026-05-07 10:11 39.82124 -1.01661 29845 ft 356 kts 173°
2026-05-07 10:11 39.79701 -1.01010 29385 ft 353 kts 173°
2026-05-07 10:11 39.77342 -1.00377 29018 ft 348 kts 173°
2026-05-07 10:12 39.74972 -0.99742 28609 ft 345 kts 173°
2026-05-07 10:12 39.72628 -0.99115 28201 ft 342 kts 173°
2026-05-07 10:12 39.70307 -0.98508 27809 ft 338 kts 175°
2026-05-07 10:12 39.67994 -0.98074 27422 ft 334 kts 178°
2026-05-07 10:13 39.65682 -0.97741 27039 ft 332 kts 179°
2026-05-07 10:13 39.63397 -0.97439 26657 ft 335 kts 179°
2026-05-07 10:13 39.61068 -0.97131 26264 ft 336 kts 178°
2026-05-07 10:13 39.58740 -0.96814 25875 ft 334 kts 178°
2026-05-07 10:14 39.56430 -0.96492 25479 ft 332 kts 178°
2026-05-07 10:14 39.54171 -0.96171 25103 ft 329 kts 178°
2026-05-07 10:14 39.51896 -0.95846 24721 ft 327 kts 178°
2026-05-07 10:14 39.49635 -0.95520 24352 ft 325 kts 178°
2026-05-07 10:15 39.47384 -0.95195 23960 ft 324 kts 178°
2026-05-07 10:15 39.45141 -0.94871 23557 ft 324 kts 178°
2026-05-07 10:15 39.42922 -0.94550 23121 ft 323 kts 178°
2026-05-07 10:15 39.40691 -0.94227 22713 ft 321 kts 178°
2026-05-07 10:16 39.38473 -0.93905 22321 ft 319 kts 177°
2026-05-07 10:16 39.36296 -0.93590 21939 ft 317 kts 177°
2026-05-07 10:16 39.34104 -0.93273 21543 ft 314 kts 176°
2026-05-07 10:16 39.31936 -0.92957 21203 ft 311 kts 176°
2026-05-07 10:17 39.29783 -0.92646 20847 ft 312 kts 176°
2026-05-07 10:17 39.27622 -0.92335 20476 ft 313 kts 176°
2026-05-07 10:17 39.25470 -0.92025 20119 ft 313 kts 176°
2026-05-07 10:17 39.23298 -0.91712 19745 ft 315 kts 176°
2026-05-07 10:18 39.21108 -0.91397 19387 ft 315 kts 175°
2026-05-07 10:18 39.18927 -0.91082 19022 ft 313 kts 175°
2026-05-07 10:18 39.16765 -0.90771 18655 ft 312 kts 175°
2026-05-07 10:18 39.14611 -0.90460 18294 ft 311 kts 175°
2026-05-07 10:19 39.12486 -0.90154 17898 ft 310 kts 174°
2026-05-07 10:19 39.10339 -0.89844 17496 ft 309 kts 175°
2026-05-07 10:19 39.08203 -0.89537 17144 ft 306 kts 175°
2026-05-07 10:19 39.06108 -0.89237 16810 ft 306 kts 175°
2026-05-07 10:20 39.03986 -0.88932 16434 ft 305 kts 174°
2026-05-07 10:20 39.01875 -0.88629 16096 ft 303 kts 174°
2026-05-07 10:20 38.99781 -0.88328 15752 ft 302 kts 174°
2026-05-07 10:20 38.97726 -0.88033 15431 ft 300 kts 174°
2026-05-07 10:21 38.95654 -0.87737 15088 ft 298 kts 174°
2026-05-07 10:21 38.93598 -0.87443 14755 ft 296 kts 174°
2026-05-07 10:21 38.91552 -0.87150 14416 ft 295 kts 174°
2026-05-07 10:21 38.89545 -0.86863 14092 ft 293 kts 174°
2026-05-07 10:22 38.87518 -0.86573 13755 ft 292 kts 174°
2026-05-07 10:22 38.85498 -0.86284 13387 ft 291 kts 174°
2026-05-07 10:22 38.83488 -0.85997 13027 ft 290 kts 174°
2026-05-07 10:22 38.81483 -0.85711 12688 ft 288 kts 174°
2026-05-07 10:23 38.79515 -0.85430 12353 ft 287 kts 173°
2026-05-07 10:23 38.77536 -0.85148 12031 ft 285 kts 173°
2026-05-07 10:23 38.75566 -0.84868 11703 ft 284 kts 173°
2026-05-07 10:23 38.73607 -0.84589 11374 ft 283 kts 173°
2026-05-07 10:24 38.71654 -0.84311 11042 ft 282 kts 173°
2026-05-07 10:24 38.69705 -0.84034 10734 ft 281 kts 173°
2026-05-07 10:24 38.67755 -0.83756 10405 ft 281 kts 173°
2026-05-07 10:24 38.65833 -0.83483 10157 ft 277 kts 173°
2026-05-07 10:25 38.63945 -0.83215 10033 ft 269 kts 173°
2026-05-07 10:25 38.62093 -0.82952 9762 ft 267 kts 173°
2026-05-07 10:25 38.60252 -0.82691 9464 ft 265 kts 173°
2026-05-07 10:25 38.58421 -0.82431 9153 ft 263 kts 173°
2026-05-07 10:26 38.56626 -0.82177 9044 ft 256 kts 173°
2026-05-07 10:26 38.54859 -0.82032 8900 ft 253 kts 186°
2026-05-07 10:26 38.53299 -0.82879 8816 ft 247 kts 219°
2026-05-07 10:26 38.52106 -0.84446 8599 ft 245 kts 226°
2026-05-07 10:27 38.50961 -0.86065 8361 ft 244 kts 225°
2026-05-07 10:27 38.49772 -0.87604 8108 ft 242 kts 221°
2026-05-07 10:27 38.48529 -0.89049 7857 ft 241 kts 219°
2026-05-07 10:27 38.47245 -0.90393 7619 ft 242 kts 215°
2026-05-07 10:28 38.45887 -0.91688 7374 ft 243 kts 213°
2026-05-07 10:28 38.44490 -0.92920 7114 ft 243 kts 210°
2026-05-07 10:28 38.43051 -0.94044 6862 ft 242 kts 207°
2026-05-07 10:28 38.41568 -0.95050 6610 ft 241 kts 204°
2026-05-07 10:29 38.40045 -0.95928 6367 ft 239 kts 200°
2026-05-07 10:29 38.38523 -0.96705 6112 ft 237 kts 198°
2026-05-07 10:29 38.36986 -0.97454 5889 ft 232 kts 195°
2026-05-07 10:30 38.34405 -0.96361 5568 ft 198 kts 115°
2026-05-07 10:30 38.34004 -0.94742 5454 ft 190 kts 107°
2026-05-07 10:30 38.33620 -0.93129 5238 ft 188 kts 105°
2026-05-07 10:30 38.33304 -0.91524 5028 ft 185 kts 103°
2026-05-07 10:31 38.33041 -0.89931 4837 ft 184 kts 101°
2026-05-07 10:31 38.32802 -0.88344 4796 ft 177 kts 101°
2026-05-07 10:31 38.32574 -0.86784 4656 ft 184 kts 100°
2026-05-07 10:31 38.32347 -0.85199 4426 ft 176 kts 101°
2026-05-07 10:32 38.32138 -0.83719 4204 ft 165 kts 101°
2026-05-07 10:32 38.31938 -0.82313 3993 ft 158 kts 100°
2026-05-07 10:32 38.31743 -0.80936 3804 ft 157 kts 101°
2026-05-07 10:32 38.31554 -0.79600 3570 ft 153 kts 100°
2026-05-07 10:33 38.31357 -0.78273 3329 ft 150 kts 101°
2026-05-07 10:33 38.31174 -0.77015 3141 ft 137 kts 100°
2026-05-07 10:33 38.31013 -0.75838 3014 ft 142 kts 99°
2026-05-07 10:33 38.30841 -0.74589 2863 ft 144 kts 99°
2026-05-07 10:34 38.30664 -0.73340 2701 ft 143 kts 98°
2026-05-07 10:34 38.30484 -0.72084 2432 ft 146 kts 99°
2026-05-07 10:34 38.30317 -0.70840 2145 ft 140 kts 98°
2026-05-07 10:34 38.30158 -0.69659 1935 ft 136 kts 98°
2026-05-07 10:35 38.29997 -0.68503 1853 ft 135 kts 99°
2026-05-07 10:35 38.29813 -0.67298 1676 ft 142 kts 99°
2026-05-07 10:35 38.29650 -0.66070 1481 ft 137 kts 98°
2026-05-07 10:35 38.29477 -0.64879 1273 ft 136 kts 99°
2026-05-07 10:36 38.29320 -0.63709 1085 ft 132 kts 100°
2026-05-07 10:36 38.29158 -0.62547 953 ft 135 kts 100°
2026-05-07 10:36 38.28993 -0.61373 806 ft 134 kts 100°
2026-05-07 10:36 38.28831 -0.60206 637 ft 134 kts 98°
2026-05-07 10:37 38.28667 -0.59030 472 ft 136 kts 99°
2026-05-07 10:37 38.28495 -0.57841 272 ft 135 kts 97°
2026-05-07 10:37 38.28341 -0.56691 127 ft 125 kts 98°
2026-05-07 10:37 38.28212 -0.55721 101 ft 92 kts 99°
2026-05-07 10:38 38.28116 -0.55101 80 ft 50 kts 100°
2026-05-07 10:38 38.28087 -0.54885 75 ft 1 kts 99°
2026-05-07 10:38 38.28071 -0.54771 70 ft 24 kts 101°
2026-05-07 10:38 38.28043 -0.54566 64 ft 16 kts 100°
2026-05-07 10:39 38.28038 -0.54506 57 ft 7 kts 81°
2026-05-07 10:39 38.28082 -0.54465 64 ft 10 kts 13°
2026-05-07 10:39 38.28162 -0.54448 62 ft 13 kts
2026-05-07 10:39 38.28215 -0.54526 57 ft 13 kts 281°
2026-05-07 10:40 38.28231 -0.54637 65 ft 13 kts 281°
2026-05-07 10:40 38.28245 -0.54744 65 ft 12 kts 281°
2026-05-07 10:40 38.28260 -0.54849 72 ft 12 kts 281°
2026-05-07 10:40 38.28275 -0.54951 73 ft 12 kts 279°
2026-05-07 10:41 38.28287 -0.55052 83 ft 11 kts 278°
2026-05-07 10:41 38.28295 -0.55116 82 ft 11 kts 278°
2026-05-07 10:41 38.28310 -0.55211 85 ft 11 kts 281°
2026-05-07 10:41 38.28323 -0.55303 89 ft 10 kts 280°
2026-05-07 10:42 38.28340 -0.55422 93 ft 10 kts 280°
2026-05-07 10:42 38.28348 -0.55481 94 ft 10 kts 280°
2026-05-07 10:42 38.28359 -0.55565 96 ft 10 kts 280°
2026-05-07 10:42 38.28371 -0.55647 100 ft 9 kts 280°
2026-05-07 10:43 38.28382 -0.55729 101 ft 9 kts 279°
2026-05-07 10:43 38.28394 -0.55810 102 ft 10 kts 280°
2026-05-07 10:43 38.28407 -0.55900 104 ft 11 kts 280°
2026-05-07 10:43 38.28419 -0.55988 106 ft 5 kts 279°
2026-05-07 10:44 38.28435 -0.56028 105 ft 6 kts 329°
2026-05-07 10:44 38.28488 -0.56023 102 ft 10 kts 10°
2026-05-07 10:44 38.28567 -0.56033 98 ft 13 kts 309°
2026-05-07 10:44 38.28588 -0.56139 99 ft 13 kts 280°
2026-05-07 10:45 38.28603 -0.56248 103 ft 12 kts 279°
2026-05-07 10:45 38.28614 -0.56328 105 ft 5 kts 280°
2026-05-07 10:45 38.28627 -0.56367 108 ft 5 kts 326°
2026-05-07 10:45 38.28663 -0.56361 108 ft 5 kts 10°
2026-05-07 10:46 38.28677 -0.56358 108 ft 0 kts
2026-05-07 10:46 38.28680 -0.56357 108 ft 0 kts